Flag for U.S.A. Weather past 2 weeks in Louisville, Kentucky, U.S.A.

Now
89 °F

Partly sunny.


Feels Like: 87 °F
Forecast: 69 / 86 °F
Wind: 13 mph from North

Location: Standiford Field

Current Time: Aug 1, 2015 at 5:01:55 PM

Latest Report: Aug 1, 2015 at 3:56 PM


Visibility: 10 mi

Pressure: 29.96 "Hg

Humidity: 29%

Dew point: 53 °F

Location of LouisvilleLocation

Historic Weather in Louisville — Graph

°F

Louisville temperature yesterday

Maximum temperature yesterday: 90 °F (at 2:56 PM)
Minimum temperature yesterday: 70 °F (at 3:56 AM)
Average temperature yesterday: 80 °F

Past Weeks' High & Low Weather Summary

 TemperatureHumidityPressure
High95 °F (Jul 29, 4:56 PM)93% (Jul 18, 1:56 AM)30.09 "Hg (Jul 18, 1:56 AM)
Low68 °F (Jul 22, 5:56 AM)31% (Jul 22, 5:56 PM)29.74 "Hg (Jul 21, 4:56 AM)
Average81 °F64%29.94 "Hg
* Reported Jul 17 2:56 PM — Aug 1 2:56 PM, Louisville, Weather by CustomWeather, © 2015

Note: Actual official high and low records may vary slightly from our data, if they occured in-between our weather recording intervals... More about our weather records

Advertising

Louisville weather history for previous 24 hours

 ConditionsComfort  
Time TempWeatherWind HumidityBarometerVisibility
2:56 PM
Sat, Aug 1
88 °FScattered clouds.12 mph33%29.96 "Hg10 mi
1:56 PM87 °FScattered clouds.15 mph32%29.98 "Hg10 mi
12:56 PM86 °FPassing clouds.7 mph36%29.99 "Hg10 mi
11:56 AM84 °FPassing clouds.7 mph43%29.99 "Hg10 mi
10:56 AM84 °FSunny.8 mph41%30.00 "Hg10 mi
9:56 AM81 °FPassing clouds.7 mph49%30.00 "Hg10 mi
8:56 AM78 °FPassing clouds.3 mph62%30.00 "Hg9 mi
7:56 AM73 °FPassing clouds.5 mph79%29.98 "Hg9 mi
6:56 AM72 °FPassing clouds.3 mph78%29.97 "Hg9 mi
5:56 AM73 °FPassing clouds.No wind76%29.96 "Hg10 mi
4:56 AM74 °FPassing clouds.3 mph74%29.97 "Hg10 mi
3:56 AM74 °FPassing clouds.No wind74%29.98 "Hg10 mi
2:56 AM75 °FPassing clouds.No wind71%29.98 "Hg10 mi
1:56 AM75 °FPassing clouds.3 mph69%29.99 "Hg10 mi
12:56 AM76 °FPassing clouds.3 mph67%29.99 "Hg10 mi
11:56 PM
Fri, Jul 31
76 °FPassing clouds.7 mph64%29.98 "Hg10 mi
10:56 PM81 °FPassing clouds.9 mph51%29.98 "Hg10 mi
9:56 PM82 °FPassing clouds.7 mph48%29.97 "Hg10 mi
8:56 PM83 °FPassing clouds.8 mph46%29.96 "Hg10 mi
7:56 PM86 °FPassing clouds.9 mph36%29.96 "Hg10 mi
6:56 PM88 °FPassing clouds.12 mph33%29.96 "Hg10 mi
5:56 PM89 °FPassing clouds.13 mph32%29.97 "Hg10 mi
Weather by CustomWeather, © 2015

See weather overviewHow to use our weather pages